[[{"header":{"parameterUnit":"m.s-1","parameterCategory":1,"la1":30.2991,"la2":30.254,"lo1":-89.0895,"lo2":-89.0444,"dy":0.0017,"dx":0.0017,"nx":28,"ny":28,"refTime":"2025-03-03T09:00:00:Z","depth":0,"parameterNumber":2,"parameterNumberName":"U-component_of_WINDS"},"data":[0,0,0,0,0,0,0,0,0,0,0,0,0,0,0,0,0,0,0,0,0,0,0,0,0,0,0,0,0,0,0,0,0,0,0,0,0,0,0,0,0,0,0,0,0,0,0,0,0,0,0,0,0,0,0,0,0,0,-6.2731,-6.2732,0,-6.2828,-6.2829,-6.283,-6.273,-6.2726,-6.2722,-6.2719,-6.2819,-6.2825,-6.2831,0,0,0,0,0,0,0,0,0,0,0,0,0,-6.2462,-6.2467,-6.2731,-6.2732,-6.2734,-6.2827,-6.2829,-6.283,-6.2731,-6.2726,-6.2721,-6.2717,-6.2817,-6.2825,-6.2832,0,0,0,0,0,0,0,0,0,0,0,0,0,-6.2571,-6.2469,-6.2731,-6.2695,-6.2693,-6.2827,-6.2829,-6.283,-6.2732,-6.2726,-6.272,-6.2715,-6.2815,-6.2824,-6.2833,-6.3007,0,0,-6.2862,-6.2866,0,0,0,0,0,0,0,0,-6.2564,-6.2581,-6.2699,-6.2698,-6.2696,-6.2761,-6.277,-6.289,-6.2733,-6.2717,-6.2719,-6.2712,-6.2805,-6.2814,-6.2845,-6.3012,-6.3016,-6.2863,-6.2868,-6.2872,-6.2875,0,0,0,0,0,0,0,-6.2557,-6.2576,-6.2769,-6.2701,-6.2699,-6.2675,-6.2684,-6.2793,-6.2792,-6.2718,-6.2711,-6.2724,-6.2802,-6.2837,-6.2847,-6.3018,-6.2862,-6.2871,-6.2877,-6.288,-6.3331,-6.3337,0,0,0,0,0,0,-6.2553,-6.257,-6.2766,-6.2772,-6.2614,-6.2684,-6.2694,-6.2746,-6.2791,-6.2792,-6.2729,-6.2719,-6.2823,-6.2836,-6.285,-6.3055,-6.2872,-6.2881,-6.2887,-6.3324,-6.3332,-6.3339,0,0,0,0,0,0,-6.2548,-6.2572,-6.2762,-6.2669,-6.2692,-6.2695,-6.2754,-6.2751,-6.2785,-6.2799,-6.2798,-6.2763,-6.2819,-6.2837,-6.2968,-6.3057,-6.2885,-6.2894,-6.3317,-6.3327,-6.3335,-6.3469,0,0,0,0,0,0,-6.2541,-6.257,-6.2637,-6.2672,-6.2697,-6.2879,-6.2759,-6.2757,-6.2801,-6.2789,-6.2831,-6.2833,-6.2816,-6.2955,-6.2978,-6.3067,-6.2901,-6.3309,-6.3321,-6.3332,-6.3456,-6.3482,-6.3503,0,0,0,0,0,-6.2531,-6.2671,-6.2641,-6.2665,-6.278,-6.2885,-6.2899,-6.2877,-6.2809,-6.2875,-6.2884,-6.2831,-6.3045,-6.2969,-6.2994,-6.3088,-6.3303,-6.3318,-6.3331,-6.3446,-6.3477,-6.3503,0,0,0,0,0,0,-6.2648,-6.2675,-6.2641,-6.2797,-6.2839,-6.2868,-6.2951,-6.291,-6.2973,-6.2959,-6.2929,-6.294,-6.3079,-6.3097,-6.3012,-6.3258,-6.3163,-6.3183,-6.3241,-6.327,-6.3293,-6.3285,-6.2909,0,0,0,0,0,-6.2691,-6.2774,-6.2793,-6.2929,-6.2951,-6.2948,-6.2993,-6.2972,-6.3014,-6.3032,-6.305,-6.3094,-6.317,-6.3222,-6.3293,-6.3459,-6.3466,-6.3536,-6.3559,-6.3578,-6.3595,-6.3682,-6.3713,-6.3385,-6.3385,-6.3385,0,0,-6.2782,-6.2808,-6.2862,-6.2953,-6.2983,-6.3069,-6.2964,-6.3059,-6.3122,-6.3047,-6.3171,-6.3187,-6.3233,-6.3382,-6.3449,-6.3402,-6.3687,-6.3596,-6.3611,-6.3618,-6.37,-6.3731,-6.3758,-6.3395,-6.3393,-6.3392,0,0,-6.2991,-6.302,-6.3134,-6.3166,-6.3213,-6.321,-6.3237,-6.3272,-6.3279,-6.3404,-6.3348,-6.3423,-6.3556,-6.3591,-6.3626,-6.3848,-6.3801,-6.3873,-6.3994,-6.4079,-6.4105,-6.4128,-6.4205,-6.4233,-6.389,-6.389,-6.389,0,-6.3099,-6.3225,-6.3198,-6.3298,-6.3339,-6.3273,-6.3389,-6.3421,-6.349,-6.352,-6.3466,-6.363,-6.3657,-6.3812,-6.3866,-6.3898,-6.3927,-6.3867,-6.4104,-6.4126,-6.4147,-6.422,-6.4249,-6.3898,-6.3897,-6.3896,-6.3896,0,-6.3354,-6.3443,-6.353,-6.3596,-6.3647,-6.3755,-6.3743,-6.3798,-6.3773,-6.3775,-6.3902,-6.3933,-6.4008,-6.4044,-6.402,-6.4196,-6.4164,-6.4108,-6.4011,-6.4187,-6.4255,-6.4283,-6.391,-6.3907,-6.3905,-6.3903,0,0,-6.3639,-6.3688,-6.372,-6.3748,-6.3795,-6.3863,-6.3967,-6.404,-6.4087,-6.4137,-6.4222,-6.4336,-6.4283,-6.4323,-6.4303,-6.4379,-6.455,-6.4312,-6.4313,-6.4354,-6.4743,-6.4783,-6.4816,-6.452,-6.4525,-6.4529,-6.4738,0,-6.3847,-6.4026,-6.4005,-6.4176,-6.4257,-6.4196,-6.4286,-6.4324,-6.4329,-6.4399,-6.4404,-6.4484,-6.441,-6.4433,-6.4505,-6.4514,-6.4627,-6.4499,-6.4598,-6.4602,-6.4586,-6.4852,-6.4896,-6.5091,-6.4765,-6.4769,-6.4773,0,-6.4115,-6.4172,-6.4351,-6.4384,-6.4417,-6.4498,-6.4562,-6.463,-6.4672,-6.467,-6.4715,-6.4681,-6.4785,-6.4687,-6.4829,-6.4742,-6.4782,-6.4792,-6.4799,-6.4806,-6.4697,-6.4865,-6.5153,-6.5182,-6.4815,-6.4811,-6.4808,0,-6.4301,-6.4424,-6.4546,-6.4573,-6.4615,-6.4673,-6.4693,-6.4729,-6.4774,-6.4831,-6.4859,-6.4928,-6.4965,-6.5019,-6.5005,-6.4935,-6.5149,-6.5051,-6.515,-6.515,-6.5196,-6.5193,-6.5493,-6.5225,-6.5225,-6.5224,-6.5224,0,-6.4536,-6.4647,-6.4631,-6.4706,-6.4829,-6.4803,-6.4925,-6.4938,-6.4971,-6.5047,-6.4999,-6.5072,-6.5049,-6.5121,-6.5111,-6.5229,-6.5247,-6.5247,-6.5243,-6.525,-6.525,-6.5274,-6.526,-6.5232,-6.523,-6.5229,-6.5228,0,-6.4764,-6.4758,-6.4887,-6.4916,-6.4925,-6.5015,-6.5039,-6.5109,-6.511,-6.5207,-6.5229,-6.5231,-6.5312,-6.5304,-6.5396,-6.5389,-6.5534,-6.5515,-6.552,-6.5514,-6.5613,-6.5603,-6.5938,-6.598,-6.5687,-6.569,-6.5692,0,-6.4913,-6.4997,-6.5034,-6.5082,-6.5105,-6.5183,-6.5228,-6.5206,-6.5255,-6.5308,-6.5372,-6.545,-6.551,-6.5643,-6.5653,-6.5722,-6.5703,-6.5815,-6.5713,-6.5717,-6.5702,-6.5696,-6.5703,-6.5835,-6.5838,-6.5841,-6.5843,0,-6.5177,-6.5169,-6.5236,-6.5301,-6.5356,-6.5407,-6.5453,-6.5495,-6.5477,-6.5535,-6.5617,-6.5664,-6.5757,-6.5834,-6.5899,-6.592,-6.5879,-6.5876,-6.5902,-6.5909,-6.5908,-6.5907,-6.5572,-6.5867,-6.5865,-6.5863,-6.5862,-6.5861,-6.5368,-6.5439,-6.5476,-6.5552,-6.5584,-6.5628,-6.5695,-6.5704,-6.5772,-6.5845,-6.5829,-6.5921,-6.596,-6.6044,-6.6071,-6.6143,-6.6102,-6.6141,-6.615,-6.6159,-6.617,-6.5898,-6.6155,-6.6155,-6.6154,-6.6153,-6.6153,0,-6.5628,-6.5648,-6.5718,-6.5783,-6.5842,-6.5798,-6.5847,-6.5899,-6.5981,-6.602,-6.608,-6.6174,-6.6248,-6.6264,-6.6334,-6.6389,-6.6372,-6.6408,-6.6403,-6.6408,-6.6203,-6.6173,-6.6421,-6.642,-6.642,-6.642,-6.642,-6.642,-6.5769,-6.5886,-6.5883,-6.6016,-6.6036,-6.6125,-6.6156,-6.6196,-6.6227,-6.6334,-6.6395,-6.6405,-6.6434,-6.6506,-6.6572,-6.6575,-6.6602,-6.6645,-6.6641,-6.6449,-6.6422,-6.6397,-6.6367,-6.6652,-6.6653,-6.6838,-6.684,-6.6841]},{"header":{"parameterUnit":"m.s-1","parameterCategory":1,"la1":30.2991,"la2":30.254,"lo1":-89.0895,"lo2":-89.0444,"dy":0.0017,"dx":0.0017,"nx":28,"ny":28,"refTime":"2025-03-03T09:00:00:Z","depth":0,"parameterNumber":3,"parameterNumberName":"V-component_of_WINDS"},"data":[0,0,0,0,0,0,0,0,0,0,0,0,0,0,0,0,0,0,0,0,0,0,0,0,0,0,0,0,0,0,0,0,0,0,0,0,0,0,0,0,0,0,0,0,0,0,0,0,0,0,0,0,0,0,0,0,0,0,0.9723,0.9723,0,0.9789,0.9789,0.979,0.9861,0.9862,0.9863,0.9864,0.9928,0.9929,0.993,0,0,0,0,0,0,0,0,0,0,0,0,0,0.9655,0.9656,0.9722,0.9723,0.9724,0.9788,0.9789,0.979,0.9861,0.9862,0.9863,0.9864,0.9928,0.9929,0.993,0,0,0,0,0,0,0,0,0,0,0,0,0,0.9699,0.9657,0.9722,0.9767,0.9772,0.9788,0.9789,0.9791,0.986,0.9862,0.9863,0.9865,0.9928,0.9929,0.993,0.9906,0,0,0.9933,0.9934,0,0,0,0,0,0,0,0,0.9697,0.9702,0.976,0.9764,0.9769,0.9818,0.9789,0.9829,0.986,0.9827,0.9864,0.9866,0.989,0.9894,0.9903,0.9909,0.9912,0.9933,0.9934,0.9935,0.9935,0,0,0,0,0,0,0,0.9693,0.9699,0.9749,0.976,0.9766,0.9783,0.9791,0.9797,0.9849,0.983,0.9835,0.9842,0.9893,0.9902,0.9905,0.9913,0.9933,0.9934,0.9935,0.9936,0.9906,0.9904,0,0,0,0,0,0,0.9684,0.9696,0.9747,0.9751,0.9736,0.9783,0.9792,0.9801,0.9849,0.9858,0.9841,0.9845,0.9899,0.9904,0.9908,0.9885,0.9935,0.9936,0.9936,0.9907,0.9905,0.9904,0,0,0,0,0,0,0.9682,0.9688,0.9744,0.9725,0.9733,0.9783,0.9792,0.9801,0.9811,0.9857,0.9867,0.9841,0.9901,0.9906,0.9907,0.9889,0.9936,0.9937,0.9909,0.9906,0.9904,0.9839,0,0,0,0,0,0,0.968,0.9687,0.9679,0.9724,0.9734,0.9742,0.9791,0.9802,0.9813,0.9819,0.986,0.9868,0.9902,0.9905,0.9908,0.9891,0.9938,0.9911,0.9908,0.9905,0.9843,0.9835,0.9828,0,0,0,0,0,0.9677,0.9657,0.9678,0.9684,0.9725,0.9741,0.9747,0.9788,0.9811,0.9803,0.9834,0.9867,0.989,0.9904,0.9909,0.9891,0.9912,0.9909,0.9905,0.9846,0.9836,0.9828,0,0,0,0,0,0,0.9606,0.9663,0.9688,0.9681,0.9706,0.9753,0.9744,0.9775,0.9793,0.9798,0.9847,0.9856,0.9851,0.9871,0.9886,0.9872,0.9906,0.9903,0.9859,0.985,0.9843,0.9838,0.9939,0,0,0,0,0,0.959,0.9599,0.9648,0.9637,0.9649,0.9694,0.9702,0.9732,0.9759,0.977,0.98,0.9824,0.9838,0.9845,0.9859,0.9846,0.9857,0.9836,0.9829,0.9822,0.982,0.9816,0.9808,0.9893,0.9893,0.9893,0,0,0.9556,0.9588,0.9591,0.9624,0.9647,0.9654,0.9702,0.9708,0.9715,0.977,0.9774,0.9797,0.9827,0.9821,0.982,0.9838,0.9799,0.9818,0.9812,0.9814,0.9812,0.9803,0.9796,0.989,0.9891,0.9891,0,0,0.9499,0.9523,0.9518,0.9541,0.9575,0.9606,0.9604,0.9647,0.9665,0.967,0.9712,0.972,0.9741,0.9762,0.9775,0.9726,0.9758,0.9729,0.969,0.9685,0.9679,0.9673,0.9657,0.9651,0.9727,0.9726,0.9726,0,0.9452,0.9466,0.9511,0.9516,0.9529,0.9582,0.9577,0.9596,0.9632,0.964,0.966,0.9689,0.9713,0.9714,0.9702,0.971,0.9711,0.9725,0.9676,0.9671,0.9666,0.9652,0.9646,0.9723,0.9723,0.9724,0.9724,0,0.9408,0.9417,0.9409,0.9445,0.9458,0.9457,0.9502,0.9509,0.9537,0.9566,0.957,0.9601,0.9624,0.9626,0.9653,0.963,0.9641,0.9667,0.9702,0.9654,0.9641,0.9636,0.9718,0.9719,0.972,0.9721,0,0,0.9307,0.937,0.9366,0.9384,0.9426,0.9434,0.9436,0.9459,0.9465,0.9488,0.9492,0.9509,0.9535,0.9549,0.9579,0.9575,0.9537,0.9603,0.9605,0.9591,0.9516,0.9496,0.9489,0.9558,0.9557,0.9556,0.9514,0,0.9258,0.9266,0.9308,0.9304,0.9313,0.9364,0.9366,0.9391,0.9418,0.943,0.9459,0.9471,0.9504,0.9513,0.9512,0.9542,0.9523,0.9546,0.9562,0.9562,0.9554,0.9482,0.9461,0.942,0.9509,0.9508,0.9508,0,0.9202,0.9224,0.9222,0.9266,0.9271,0.9272,0.9298,0.9308,0.9339,0.9359,0.9376,0.941,0.9415,0.9447,0.9455,0.9469,0.9478,0.9494,0.9494,0.9498,0.9532,0.9485,0.9407,0.9401,0.95,0.95,0.9501,0,0.9131,0.916,0.9163,0.9176,0.9227,0.9227,0.9247,0.928,0.9292,0.9313,0.9322,0.9343,0.9355,0.9371,0.941,0.9429,0.9414,0.9448,0.943,0.9429,0.9425,0.9425,0.9349,0.9429,0.9429,0.9429,0.9429,0,0.9073,0.9069,0.9132,0.9133,0.9131,0.9178,0.9175,0.92,0.9229,0.9236,0.928,0.9286,0.9337,0.9348,0.9379,0.9381,0.9386,0.9402,0.941,0.9399,0.9397,0.9406,0.9411,0.9428,0.9428,0.9428,0.9428,0,0.8993,0.9035,0.9041,0.9089,0.9101,0.9098,0.9139,0.9142,0.9172,0.9181,0.9186,0.9232,0.9248,0.9289,0.9315,0.9335,0.933,0.9344,0.932,0.9326,0.9306,0.9308,0.9234,0.9227,0.931,0.9309,0.9308,0,0.8954,0.8953,0.9001,0.901,0.903,0.9043,0.9056,0.9103,0.9114,0.915,0.9149,0.9169,0.9187,0.9211,0.9246,0.9267,0.9283,0.9255,0.9286,0.9275,0.9284,0.9284,0.9285,0.9249,0.9248,0.9247,0.9246,0,0.888,0.8901,0.8919,0.8944,0.8959,0.898,0.9004,0.9009,0.9061,0.9072,0.909,0.9104,0.9132,0.9151,0.9177,0.9198,0.9231,0.9236,0.9233,0.9222,0.9209,0.9217,0.9303,0.9238,0.9239,0.9239,0.924,0.924,0.8821,0.8823,0.8858,0.8877,0.89,0.8922,0.8928,0.8959,0.8975,0.9003,0.9029,0.9044,0.9076,0.9115,0.9133,0.9146,0.9163,0.9158,0.9157,0.9156,0.9151,0.9206,0.9151,0.9151,0.9151,0.9151,0.9152,0,0.8751,0.8777,0.8793,0.8826,0.8841,0.8871,0.89,0.891,0.8923,0.8951,0.8969,0.8989,0.9009,0.9046,0.9069,0.9072,0.9087,0.9076,0.9077,0.9082,0.9134,0.9135,0.9063,0.9063,0.9063,0.9063,0.9063,0.9063,0.8717,0.8723,0.8748,0.8766,0.8791,0.8808,0.8821,0.8842,0.8864,0.8886,0.8903,0.8928,0.8959,0.8985,0.9004,0.9014,0.9021,0.9005,0.9021,0.9069,0.9078,0.9086,0.9087,0.9006,0.9006,0.8968,0.8967,0.8967]}]]